| time (UTC) | temp C | wind direction | speed KPH | gust KPH | rain 1hr cm | rain 24hr cm | rain mn cm | humidity % | barometer mb |
| 20260504020010 | 13 | 282 | 0.0 | 0.0 | 0.08 | 1.02 | 0.10 | 72 | 1011.2 |
| 20260504014511 | 13 | 277 | 0.0 | 0.0 | 0.08 | 1.14 | 0.10 | 72 | 1011.4 |
| 20260504013006 | 13 | 242 | 0.0 | 9.7 | 0.08 | 1.14 | 0.10 | 72 | 1011.5 |
| 20260504011506 | 13 | 5 | 0.0 | 0.0 | 0.08 | 1.14 | 0.10 | 72 | 1011.9 |
| 20260504010005 | 13 | 304 | 0.0 | 0.0 | 0.00 | 1.07 | 0.03 | 72 | 1011.8 |
| 20260504004510 | 13 | 304 | 0.0 | 0.0 | 0.00 | 1.09 | 0.03 | 72 | 1011.8 |
| 20260504003004 | 13 | 304 | 0.0 | 0.0 | 0.00 | 1.09 | 0.03 | 72 | 1012.0 |
| 20260504001511 | 13 | 304 | 0.0 | 0.0 | 0.00 | 1.09 | 0.03 | 72 | 1011.9 |
| 20260504000003 | 13 | 304 | 0.0 | 0.0 | 0.00 | 1.09 | 0.03 | 72 | 1011.9 |
| 20260503234503 | 12 | 304 | 0.0 | 0.0 | 0.03 | 1.09 | 0.03 | 72 | 1012.0 |
| 20260503233002 | 12 | 304 | 0.0 | 0.0 | 0.03 | 1.09 | 0.03 | 72 | 1011.8 |
| 20260503231502 | 12 | 304 | 0.0 | 0.0 | 0.03 | 1.09 | 0.03 | 72 | 1011.9 |
| 20260503230006 | 11 | 304 | 0.0 | 0.0 | 0.03 | 1.09 | 0.03 | 72 | 1011.9 |
| 20260503224501 | 11 | 304 | 0.0 | 0.0 | 0.00 | 1.07 | 0.00 | 72 | 1012.0 |
| 20260503223100 | 11 | 304 | 0.0 | 0.0 | 0.00 | 1.07 | 0.00 | 72 | 1012.0 |
| 20260503221609 | 11 | 304 | 0.0 | 0.0 | 0.00 | 1.07 | 0.00 | 72 | 1012.0 |
| 20260503220059 | 10 | 304 | 0.0 | 0.0 | 0.00 | 1.07 | 0.00 | 72 | 1011.8 |
| 20260503214559 | 10 | 304 | 0.0 | 0.0 | 0.00 | 1.07 | 0.00 | 72 | 1011.8 |
| 20260503213201 | 10 | 304 | 0.0 | 0.0 | 0.00 | 1.07 | 0.00 | 72 | 1011.7 |
| 20260503211559 | 10 | 304 | 0.0 | 0.0 | 0.00 | 1.07 | 0.00 | 72 | 1011.9 |
| 20260503210057 | 11 | 304 | 0.0 | 0.0 | 0.00 | 1.07 | 0.00 | 72 | 1011.6 |
| 20260503204619 | 11 | 304 | 0.0 | 0.0 | 0.00 | 1.07 | 0.00 | 72 | 1011.6 |
| 20260503203100 | 11 | 304 | 0.0 | 0.0 | 0.00 | 1.07 | 0.00 | 72 | 1011.5 |
| 20260503201555 | 11 | 304 | 0.0 | 0.0 | 0.00 | 1.07 | 0.00 | 72 | 1011.3 |
| 20260503200055 | 10 | 304 | 0.0 | 0.0 | 0.00 | 1.07 | 0.00 | 72 | 1011.4 |
| 20260503194600 | 10 | 304 | 0.0 | 0.0 | 0.00 | 1.07 | 0.00 | 72 | 1011.4 |
| 20260503193106 | 10 | 304 | 0.0 | 0.0 | 0.00 | 1.07 | 0.00 | 72 | 1011.2 |
| 20260503191609 | 10 | 304 | 0.0 | 0.0 | 0.00 | 1.07 | 0.00 | 72 | 1011.2 |
| 20260503190055 | 10 | 304 | 0.0 | 0.0 | 0.00 | 1.07 | 0.00 | 72 | 1011.3 |
| 20260503184551 | 10 | 304 | 0.0 | 0.0 | 0.00 | 1.07 | 0.00 | 72 | 1011.4 |
| 20260503183050 | 10 | 304 | 0.0 | 0.0 | 0.00 | 1.07 | 0.00 | 72 | 1011.4 |
| 20260503181550 | 11 | 304 | 0.0 | 0.0 | 0.00 | 1.07 | 0.00 | 72 | 1011.4 |
| 20260503180056 | 11 | 304 | 0.0 | 0.0 | 0.00 | 1.07 | 0.00 | 72 | 1011.5 |
| 20260503174552 | 10 | 304 | 0.0 | 0.0 | 0.00 | 1.07 | 0.00 | 72 | 1011.6 |
| 20260503173045 | 10 | 304 | 0.0 | 0.0 | 0.00 | 1.07 | 0.00 | 72 | 1011.5 |
| 20260503171543 | 11 | 304 | 0.0 | 0.0 | 0.00 | 1.07 | 0.00 | 72 | 1011.5 |
| 20260503081505 | 15 | 229 | 0.0 | 0.0 | 0.10 | 0.81 | 0.81 | 72 | 1012.0 |
| 20260503071502 | 15 | 229 | 0.0 | 0.0 | 0.05 | 0.71 | 0.71 | 72 | 1011.8 |
| 20260503054611 | 15 | 66 | 0.0 | 0.0 | 0.18 | 0.66 | 0.66 | 72 | 1012.8 |
| 20260503053057 | 16 | 24 | 0.0 | 0.0 | 0.33 | 0.66 | 0.66 | 72 | 1013.0 |
| 20260503051556 | 16 | 24 | 0.0 | 0.0 | 0.48 | 0.66 | 0.66 | 72 | 1013.1 |
| 20260503050055 | 16 | 319 | 0.0 | 0.0 | 0.43 | 0.58 | 0.58 | 72 | 1013.1 |
| 20260503044554 | 16 | 319 | 0.0 | 0.0 | 0.33 | 0.48 | 0.48 | 72 | 1012.8 |
| 20260503043058 | 16 | 319 | 0.0 | 0.0 | 0.15 | 0.33 | 0.33 | 72 | 1012.9 |
| 20260503041553 | 16 | 72 | 0.0 | 0.0 | 0.03 | 0.18 | 0.18 | 72 | 1012.4 |
| 20260503040055 | 16 | 72 | 0.0 | 0.0 | 0.00 | 0.15 | 0.15 | 72 | 1012.2 |
| 20260503034550 | 16 | 355 | 0.0 | 0.0 | 0.00 | 0.15 | 0.15 | 72 | 1012.5 |
| 20260503033047 | 16 | 355 | 0.0 | 0.0 | 0.03 | 0.15 | 0.15 | 72 | 1012.9 |
| 20260503031545 | 16 | 355 | 0.0 | 0.0 | 0.03 | 0.15 | 0.15 | 72 | 1013.1 |
| 20260503030042 | 16 | 355 | 0.0 | 3.2 | 0.03 | 0.15 | 0.15 | 72 | 1013.4 |
| 20260503024539 | 16 | 5 | 0.0 | 0.0 | 0.05 | 0.15 | 0.15 | 72 | 1013.9 |
| 20260503023037 | 16 | 5 | 0.0 | 0.0 | 0.10 | 0.15 | 0.15 | 72 | 1014.1 |
| 20260503021532 | 16 | 5 | 0.0 | 1.6 | 0.13 | 0.15 | 0.15 | 72 | 1014.3 |